Weather History for Hayward, WI

Change the Weather History Date:

Sunday, December 15, 2013

  Actual Average Record
Temperature  
Mean Temperature -11 °F -  
Max Temperature 1 °F 34 °F 44 °F (1997)
Min Temperature -23 °F 18 °F -23 °F (2013)
Degree Days  
Heating Degree Days 76    
Moisture  
Dew Point -15 °F    
Average Humidity 74    
Maximum Humidity 84    
Minimum Humidity 60    
Precipitation  
Precipitation 0.00 in - - ()
Sea Level Pressure  
Sea Level Pressure 30.12 in    
Wind  
Wind Speed 2 mph (West)    
Max Wind Speed 6 mph    
Max Gust Speed -    
Visibility 10 miles    
Events      
Averages and records for this station are not official NWS values.
T = Trace of Precipitation, MM = Missing Value Source: NWS Daily Summary

Daily Weather History Graph

Daily Weather History Graph

Search for Another Location

Airport:

Trip Planner

Search our weather history database for the weather conditions in past years. The results will help you decide how hot, cold, wet, or windy it might be!

Date:

Astronomy

Dec. 15, 2013 Rise Set
Actual Time 7:41 AM CST 4:21 PM CST
Civil Twilight 7:06 AM CST 4:55 PM CST
Nautical Twilight 6:28 AM CST 5:33 PM CST
Astronomical Twilight 5:52 AM CST 6:10 PM CST
Moon 3:29 PM CST (12/15) 5:53 AM CST (12/15)
Length of Visible Light 9h 49m
Length of Day
8h 39m
Waxing Gibbous, 98% of the Moon is Illuminated
Dec 15
Waxing Gibbous
Dec 17
Full
Dec 25
Last Quarter
Jan 1
New
Jan 7
First Quarter

Hourly Weather History & Observations

Time (CST) Temp. Windchill Dew Point Humidity Pressure Visibility Wind Dir Wind Speed Gust Speed Precip Events Conditions
12:50 AM 1.4 °F - -4.0 °F 78% 29.95 in 10.0 mi Calm Calm - 0.00 in   Partly Cloudy
12:53 AM 1.9 °F -7.6 °F -4.0 °F 76% 30.04 in 10.0 mi Variable 4.6 mph - 0.00 in   Partly Cloudy
1:53 AM -0.9 °F - -6.0 °F 79% 30.05 in 10.0 mi Calm Calm - N/A   Scattered Clouds
2:53 AM -2.9 °F -11.2 °F -8.0 °F 79% 30.06 in 10.0 mi Variable 3.5 mph - N/A   Clear
3:20 AM -4.0 °F - -9.4 °F 78% 29.98 in 10.0 mi Calm Calm - N/A   Mostly Cloudy
3:53 AM -5.1 °F -13.6 °F -9.9 °F 80% 30.09 in 10.0 mi West 3.5 mph - N/A   Overcast
4:53 AM -6.0 °F -14.7 °F -11.9 °F 75% 30.09 in 10.0 mi Variable 3.5 mph - N/A   Overcast
5:04 AM -7.6 °F - -11.2 °F 84% 30.00 in 10.0 mi Calm Calm - N/A   Overcast
5:53 AM -9.0 °F -18.2 °F -14.1 °F 79% 30.10 in 10.0 mi West 3.5 mph - N/A   Overcast
6:22 AM -9.4 °F -18.6 °F -14.8 °F 77% 30.00 in 10.0 mi Variable 3.5 mph - N/A   Scattered Clouds
6:53 AM -11.0 °F - -16.1 °F 78% 30.11 in 10.0 mi Calm Calm - N/A   Partly Cloudy
7:53 AM -11.9 °F -21.5 °F -18.0 °F 74% 30.13 in 10.0 mi West 3.5 mph - N/A   Clear
8:53 AM -11.0 °F -22.8 °F -17.0 °F 75% 30.14 in 10.0 mi Variable 4.6 mph - N/A   Clear
9:53 AM -9.9 °F -21.5 °F -16.1 °F 74% 30.15 in 10.0 mi West 4.6 mph - N/A   Clear
10:53 AM -7.1 °F -19.9 °F -15.0 °F 68% 30.15 in 10.0 mi Variable 5.8 mph - N/A   Clear
11:53 AM -4.0 °F -16.3 °F -13.0 °F 65% 30.13 in 10.0 mi Variable 5.8 mph - N/A   Clear
12:53 PM -2.9 °F -15.0 °F -13.0 °F 62% 30.12 in 10.0 mi West 5.8 mph - N/A   Clear
1:53 PM -0.9 °F - -11.9 °F 60% 30.12 in 10.0 mi Calm Calm - N/A   Clear
2:53 PM -2.0 °F -12.2 °F -11.9 °F 63% 30.14 in 10.0 mi Variable 4.6 mph - N/A   Clear
3:53 PM -2.9 °F - -13.0 °F 62% 30.16 in 10.0 mi Calm Calm - N/A   Clear
4:53 PM -9.0 °F - -14.1 °F 79% 30.18 in 10.0 mi Calm Calm - N/A   Clear
5:53 PM -14.1 °F - -20.0 °F 75% 30.20 in 10.0 mi Calm Calm - N/A   Clear
6:53 PM -17.0 °F - -23.1 °F 74% 30.22 in 10.0 mi Calm Calm - N/A   Clear
7:53 PM -18.9 °F - -26.0 °F 70% 30.22 in 10.0 mi Calm Calm - N/A   Clear
8:53 PM -20.9 °F - -26.0 °F 77% 30.22 in 10.0 mi Calm Calm - N/A   Clear
9:53 PM -23.1 °F - -27.9 °F 78% 30.22 in 10.0 mi Calm Calm - N/A   Clear
10:53 PM -22.0 °F - -29.0 °F 70% 30.22 in 10.0 mi Calm Calm - N/A   Clear
11:53 PM -18.0 °F - -23.1 °F 78% 30.21 in 10.0 mi Calm Calm - N/A   Overcast